TELSTAR 12V

Last updated on Thu Aug 13 2026 00:03:00 GMT+0000 (Coordinated Universal Time)

1 41036U 15068A 26224.42653507 -.00000137 00000+0 00000+0 0 9992 2 41036 0.0135 75.3171 0002067 66.0141 318.0840 1.00271449 39196
UTC large
Height (km)
Speed (km/s)
/
Latitude / Longitude
Inclination (degrees)
Orbital Period (minutes)
Azimuth
Elevation
Range (km)
Doppler Factor

Next 0 passes for location: London (51.5072 / 0.1276)

No passes found over London.
TELSTAR 12V